Regional Weather Roundup
Issued by NWS Grand Forks, ND

Home | Current Version | Previous Version | Graphics & Text | Print | Product List | Glossary On
Versions: 1 2 3 4 5 6 7 8 9 10 11 12 13 14 15 16 17 18 19 20 21 22 23 24 25 26 27 28 29 30 31 32 33 34 35 36 37 38 39 40 41 42 43 44 45 46 47 48 49 50
000
ASUS43 KFGF 261310
RWRFGF
PRAIRIE TO PINES  WEATHER ROUNDUP
NATIONAL WEATHER SERVICE EASTERN NORTH DAKOTA/GRAND FORKS ND
800 AM CDT THU APR 26 2018

 **SATELLITE DATA USED TO AUGMENT SKY COVER AT AUTOMATED STATIONS**
 *****  WEATHER ACROSS EASTERN NORTH DAKOTA  *****

CITY           SKY/WX    TMP DP  RH WIND       PRES   REMARKS
GRAND FORKS    FAIR      39  32  76 NW15      30.02R
GRAND FRKS AFB FAIR      42  31  64 N15       30.03R
GRAND FRKS NWS   N/A     40  32  73 N16       29.99R
DEVILS LAKE    FAIR      38  29  70 N10       30.09R
FARGO          FAIR      42  33  70 N22       29.98R
WAHPETON ARPT  FAIR      43  32  65 N16G22    29.95R
$$

 ***** WEATHER ACROSS CENTRAL AND WESTERN NORTH DAKOTA  *****

CITY           SKY/WX    TMP DP  RH WIND       PRES   REMARKS
BISMARCK       FAIR      43  32  65 NW7       30.14R
MINOT          FAIR      40  29  64 W8        30.12R
JAMESTOWN      FAIR      39  30  70 N16       30.06R
MINOT AFB      FAIR      37  29  73 NW9       30.11R
GARRISON         N/A     36  30  79 N8        30.12R
WILLISTON      FAIR      37  30  75 CALM      30.17R
DICKINSON      FAIR      37  32  82 W6        30.15R
HETTINGER      FAIR      34  30  85 NW5       30.18R
$$

 *****  OTHER AIRPORT OBSERVATIONS IN OUR AREA  *****

CITY           SKY/WX    TMP DP  RH WIND       PRES   REMARKS
WALHALLA       FAIR      39  28  65 NW13      30.06R
GRAFTON AIRPOR FAIR      41  30  65 NW16      30.05R
VALLEY CITY AR FAIR      41  32  70 N15       30.05R
CANDO          FAIR      39  28  65 N8        30.11R
CAVALIER APRT    N/A     39  28  65 N14       30.05R
GWINNER          N/A     45  32  61 N21       30.00R
SHEYENNE NWR     N/A     46  31  55 N14       29.95S
ROLLA          FAIR      36  28  75 NW8       30.09R
 ***** THE ABOVE OBSERVATIONS ARE NON NWS ARE NOT QUALITY
       CONTROLLED AND MAY MIS-REPORT RAIN FOR SNOW...
$$

  *****  WEATHER ACROSS NORTHERN MINNESOTA  *****

CITY           SKY/WX    TMP DP  RH WIND       PRES   REMARKS
FLAG ISLAND    FAIR      37  32  81 NW15      29.92R
WARROAD        FAIR      39  32  75 NW12      29.95R
ROSEAU         FAIR      39  32  75 NW14      29.96R
HALLOCK        FAIR      39  28  65 N22       30.02R
THF RVR FALLS  FAIR      40  30  67 NW21      29.97R
BAUDETTE       FAIR      42  35  76 N15G23    29.90R
WASKISH        FAIR      43  36  75 N10       29.89R
CROOKSTON      FAIR      39  30  70 N18       30.00R
STEPHEN NDAWN    N/A     39  28  65 N15         N/A
GREENBUSH NDAW   N/A     37  30  75 NW13        N/A
$$
  *****  WEATHER ACROSS CENTRAL AND WEST MINNESOTA  *****

CITY           SKY/WX    TMP DP  RH WIND       PRES   REMARKS
FOSSTON        FAIR      41  28  60 NW14      29.94R
BEMIDJI        FAIR      43  33  68 NW16      29.89R
PARK RAPIDS    FAIR      46  34  62 N16G25    29.88R
ELBOW LAKE     FAIR      44  36  73 N14G20    29.91R
WADENA         FAIR      45  34  65 N13       29.88R
DETROIT LAKES  FAIR      41  34  75 N15       29.94R
MOORHEAD       FAIR      43  32  65 N20       29.98R
FERGUS FALLS   FAIR      46  34  61 N15G22    29.91R
MORRIS MN      FAIR      41  36  81 N15       29.89R
STAPLES        FAIR      43  34  70 N13       29.86R
$$
  *****  WEATHER ELSEWHERE ACROSS MINNESOTA  *****

CITY           SKY/WX    TMP DP  RH WIND       PRES   REMARKS
DULUTH         FAIR      45  31  58 W13       29.78S
INTRNTL FALLS  CLOUDY    43  36  76 N15       29.85R
ELY            FAIR      43  28  56 W7        29.78R
CLOQUET        FAIR      43  28  56 SW9       29.80R
WHEATON        FAIR      45  34  65 NW15G24   29.96R
BRAINERD       PTSUNNY   45  31  58 NW8       29.84R
HIBBING        CLOUDY    35  29  78 CALM      29.78R
ALEXANDRIA     FAIR      46  34  62 N13       29.87R
SAINT CLOUD    FAIR      42  34  73 CALM      29.84R
MINNEAPOLIS    PTSUNNY   49  35  58 SW6       29.87S
$$

  *****  WEATHER ACROSS SOUTH DAKOTA  *****

CITY           SKY/WX    TMP DP  RH WIND       PRES   REMARKS
SIOUX FALLS    PTSUNNY   46  34  62 W7        29.89R
BROOKINGS      FAIR      45  36  70 NW12      29.90R
WATERTOWN      FAIR      43  34  70 N20       29.92R
HURON          FAIR      44  34  67 N18G26    29.98R
SISSETON         N/A     45  34  65 NW17      29.96R
ABERDEEN       FAIR      45  33  63 N22       30.02R
MITCHELL       FAIR      46  37  71 N18G29    29.93R
PIERRE         FAIR      44  33  65 N18G26    30.08R
MOBRIDGE       FAIR      42  32  67 NW10      30.09R
RAPID CITY     PTSUNNY   44  33  65 N13       30.20R
$$

  *****  SOME WEATHER IN NEARBY STATES *****

CITY           SKY/WX    TMP DP  RH WIND       PRES   REMARKS
GLASGOW MT     FAIR      38  33  82 W5        30.19R
GREAT FALLS MT FAIR      36  29  75 SW9       30.21R
CHEYENNE WY    MOCLDY    39  29  67 N20G29    30.24R
SCOTTSBLUFF NE CLOUDY    47  34  60 N15G22    30.21R
OMAHA NE       CLOUDY    43  37  79 SE6       29.97S
DES MOINES IA  CLOUDY    46  36  68 CALM      29.97R
DAVENPORT IA   FAIR      45  34  65 S7        29.98R
CHICAGO IL     FAIR      45  31  58 CALM      29.96S
EAU CLAIRE WI  FAIR      40  31  70 SW3       29.89S
LA CROSSE WI   FAIR      45  38  76 S7        29.93R
$$

  *****  SOME NATIONAL WEATHER *****

CITY           SKY/WX    TMP DP  RH WIND       PRES   REMARKS
LA GUARDIA NY  FAIR      57  46  66 W18G25    29.69R
RALEIGH NC     PTSUNNY   58  52  80 N6        29.89S
ATLANTA GA     PTSUNNY   57  52  83 W6        29.89R
NEW ORLEANS LA LGT RAIN  63  60  90 NW10      29.93R
OKLAHOMA CITY  FAIR      44  41  89 NW3       30.04R
ALBUQUERQUE NM FAIR      47  28  47 SE7       30.10R
SALT LAKE CITY FAIR      49  35  58 SE6       30.16R
LOS ANGELES CA CLOUDY    56  51  84 W6        30.01R
BOISE ID       FAIR      50  33  52 SE10      30.14R
SEATTLE WA     FAIR      52  40  63 N8        30.02F
$$

*** WEATHER ACROSS MANITOBA...SASKATCHEWAN AND ONTARIO ***
                ***ONTARIO***

CITY           SKY/WX    TMP DP  RH WIND       PRES   REMARKS
GERALDTON      CLOUDY    39  27  60 SW7       29.68S
THUNDER BAY    PTSUNNY   34  28  80 CALM      29.75S
SIOUX LOOKOUT  CLOUDY    37  36  93 N7        29.84R
TORONTO        MOSUNNY   45  34  65 NW23G33   29.83R
BIG TROUT LK   CLOUDY    23  18  80 N7        29.94R WCI  15
PICKLE LAKE    LGT SNOW  30  28  93 N12G21    29.83R WCI  21
DRYDEN         CLOUDY    37  34  87 N13G22    29.86R
KENORA         CLOUDY    39  34  81 N13G18    29.91R
$$
                *** MANITOBA***

CITY           SKY/WX    TMP DP  RH WIND       PRES   REMARKS
BRANDON        MOSUNNY   36  30  80 W8        30.09R
DAUPHIN        SUNNY     36  30  80 SW6       30.06F
ISLAND LAKE    CLOUDY    23  19  86 NW7       30.03R WCI  15
PILOT MOUND      N/A     36  27  69 NW6         N/A
THE PAS        CLOUDY    32  27  80 SE14      29.94F WCI  22
THOMPSON       PTSUNNY   21  12  68 S3        30.01S
WINNIPEG       SUNNY     36  28  75 NW13      30.05R
LYNN LAKE      LGT SNOW  27  25  93 SE9       29.82F WCI  17
CHURCHILL      PTSUNNY    9   5  85 W6        30.07S WCI  -1
GILLAM         FLURRIES  12   7  79 SE3       30.05S
$$
                ***SASKATCHEWAN***

CITY           SKY/WX    TMP DP  RH WIND       PRES   REMARKS
ESTEVAN        MOSUNNY   34  27  75 W5        30.13R
KINDERSLEY     CLEAR     36  28  75 SW9       30.08S
LLOYDMINSTER   CLEAR     41  30  65 W12       30.00S
PRINCE ALBERT  MOSUNNY   39  28  65 W7        29.94F
REGINA         SUNNY     34  28  80 SW6       30.09F
YORKTON        MOSUNNY   36  28  75 SW9       30.04F
N. BATTLEFORD  CLEAR     43  28  56 W10       30.02S
LA RONGE       MOSUNNY   45  27  49 W13       29.81R
SASKATOON      MOSUNNY   37  30  75 SW10      30.04F
SWIFT CURRENT  CLEAR     37  27  65 SW15      30.11S
$$
NOTE: THESE ARE AUTOMATED STATIONS WITH LIMITED QUALITY CONTROL
      "FAIR" INDICATES FEW OR NO CLOUDS BELOW 12,000 FEET WITH NO
      SIGNIFICANT WEATHER AND/OR OBSTRUCTIONS TO VISIBILITY.
      SKY/WX - SKY CONDITION AND SIGNIFICANT WEATHER.
      TMP - AIR TEMPERATURE.    DP   - DEWPOINT TEMPERATURE.
      RH  - RELATIVE HUMIDITY.  PRES - PRESSURE.
      HX  - HEAT INDEX.         WCI  - WIND CHILL INDEX.
$



USA.gov is the U.S. government's official web portal to all federal, state and local government web resources and services.